Weather in Latynino

Russia / Kaluga Oblast     54°43′04″N   36°51′51″E
temp.,
°C
wind,
m/s
gust,
m/s
humid.,
%
clouds,
%
prec.,
mm/h
press.,
hPa
HPBL,
m
2 december, thu
thu200:00−7wnw488241 0.3 998628
03:00−8w498770 0.3 1000508
06:00−8wsw398845 0.0 1002447
09:00−7sw399491 0.0 1003366
12:00−4ssw4981100 0.0 1002481
15:00−3s51390100 0.1 1000709
18:00−3s51395100 2.1 999655
21:000ssw51395100 2.6 998582
3 december, fri
fri300:00+1sw51398100 0.0 999631
03:00+2sw61390100 0.1 999775
06:00+2sw61290100 0.0 1000984
09:00+1sw5128583 0.0 1002577
12:00+1ssw4118889 0.0 1003546
15:00+1s3895100 0.0 1002376
18:000s31299100 4.3 1000691
21:000w2599100 8.0 1000329
4 december, sat
sat400:00−1w41096100 1.6 1002711
03:00−1wsw51289100 1.8 1003732
06:00−4wsw513905 0.0 1005476
09:00−5wsw5149070 0.0 1007556
12:00−3wsw61182100 0.1 10081020
15:00−3wsw5108486 0.1 1010847
18:00−5wsw4119054 0.0 1012479
21:00−6wsw310935 0.0 1014302
5 december, sun
sun500:00−7wsw389679 0.0 1016215
03:00−8sw249898 0.0 101783
06:00−5ssw2496100 0.1 1017141
09:00−5s1495100 0.1 1018142
12:00−2s2488100 0.0 1019306
15:00−3se2591100 0.0 1019214
18:00−4se2694100 0.0 1020190
21:00−3ese3890100 0.0 1019290
6 december, mon
mon600:00−3ese41087100 0.1 1020391
03:00−3ese41185100 0.1 1020444
06:00−3ese51281100 0.0 1020502
09:00−3ese61387100 0.1 1020636
12:00−3ese51395100 1.6 1020570
15:00−2ese41197100 3.8 1020531
18:00−2ese41096100 1.7 1020457
21:00−1se41095100 2.1 1020409